RH
76 74 72 70 69 65 62 58 52 48 43 40 38 39 43 45 47 44 37 32 35 52 71 79 77 71 65 60 55 47 48 61 74 79 68 53 48 45 51 61 59 52 50 64 82 82 82 90 97 102 104 107 99 88 94 101 100 100 100 100 100 100 101 100 95 88 77 64 55 50 45 41 37 37 39 38 39 38 35 33 30 28 29 32 36 38
74 71 68 65 62 57 53 47 42 40 38 38 39 43 51 58 60 54 47 38 38 53 66 73 82 80 68 59 58 57 52 54 69 83 76 62 53 45 51 63 64 56 55 74 96 101 98 97 99 100 101 104 102 99 101 100 100 100 99 100 100 101 98 89 79 67 56 50 48 45 44 48 49 48 45 40 38 37 35 34 32 31 29 29 31 31
67 64 60 55 51 47 44 41 40 41 43 45 47 53 60 67 69 65 61 48 42 54 61 64 75 80 75 65 61 59 55 54 56 65 74 68 56 52 56 59 60 58 54 61 78 93 101 103 105 102 100 101 100 102 102 99 101 101 101 102 100 94 83 71 59 48 50 61 61 49 46 54 56 52 49 44 42 40 39 39 38 36 33 32 33 33
56 53 48 45 45 45 44 44 46 48 51 53 56 64 71 75 75 72 67 56 48 60 73 76 73 71 70 66 65 62 56 53 48 54 71 66 54 56 57 56 62 67 66 64 66 75 85 95 103 104 104 105 103 103 101 102 101 94 93 91 82 76 68 58 53 57 71 77 68 56 51 56 65 66 59 52 49 47 44 43 41 38 35 33 33 34
48 45 42 47 53 52 50 51 52 54 57 62 67 74 79 80 82 77 71 65 62 70 85 85 71 63 65 64 64 63 56 47 41 50 62 57 53 53 48 49 57 66 72 78 81 80 76 75 78 81 87 91 92 91 89 86 77 70 70 67 70 77 67 52 52 66 80 80 77 78 67 54 62 74 74 66 58 52 48 45 43 42 40 38 37 37
45 44 47 56 62 60 58 57 57 60 63 68 72 77 82 84 86 84 76 72 74 77 80 77 66 62 63 60 58 59 53 42 39 49 51 49 53 49 40 39 43 51 60 67 76 84 85 80 72 69 71 73 71 69 67 63 58 59 58 63 83 88 68 60 69 78 86 89 93 98 89 68 58 66 78 81 68 56 51 47 46 47 47 45 43 44
55 54 63 74 72 63 62 62 62 65 68 70 72 77 83 85 87 89 82 75 80 81 71 64 62 61 60 58 56 53 47 38 41 52 49 45 52 46 38 39 37 38 44 51 59 67 76 80 77 73 72 73 70 65 60 58 63 66 59 68 87 81 71 84 95 94 97 101 98 98 100 93 75 62 70 85 80 65 56 51 49 50 52 53 50 51
78 69 75 89 83 68 63 67 68 69 72 74 76 78 82 87 88 88 82 76 79 78 66 58 57 58 58 60 57 50 45 38 44 63 59 48 53 48 39 40 43 42 39 41 46 50 55 61 66 67 66 67 66 65 62 60 66 70 67 71 79 81 91 100 99 98 100 101 102 99 99 103 96 74 64 79 89 79 65 57 54 52 55 60 59 58
90 79 77 90 96 83 71 68 65 67 74 76 77 80 86 92 89 80 76 76 76 71 66 62 58 57 57 57 54 50 48 43 48 71 73 54 50 51 45 44 53 57 49 40 39 42 47 53 59 60 57 56 54 55 57 59 63 70 72 69 75 93 105 99 95 100 101 99 101 101 99 101 102 88 68 72 89 93 81 67 60 57 58 63 68 68
90 84 79 93 108 95 76 72 68 69 77 79 82 88 90 91 86 78 75 75 73 70 71 70 62 56 54 54 52 50 52 48 49 69 82 69 51 47 53 57 58 56 51 47 42 42 49 55 58 58 54 52 54 52 49 51 55 63 65 62 76 99 103 99 98 97 99 102 100 100 103 101 101 98 79 67 81 98 95 82 72 67 64 66 74 77
85 82 83 97 112 101 84 82 80 81 85 86 88 90 87 87 87 81 74 72 74 76 79 78 67 54 53 59 59 55 56 51 46 58 73 72 56 50 59 61 54 49 48 49 49 54 62 59 53 53 52 53 58 57 52 50 50 56 59 58 78 99 99 100 98 91 95 103 102 101 101 100 102 102 85 64 70 93 100 95 89 82 76 73 77 83
81 84 93 101 105 101 94 89 86 89 92 89 87 84 84 84 83 80 77 76 80 83 84 81 70 57 54 60 60 56 56 52 45 46 51 53 55 63 64 55 50 47 42 46 58 71 71 61 55 56 54 51 53 57 57 54 50 56 62 62 78 99 103 100 95 93 98 101 102 100 98 101 103 101 93 75 68 81 97 102 100 97 91 84 83 88
90 92 101 105 102 102 101 93 90 92 88 85 82 81 85 84 78 81 83 81 80 80 78 71 62 53 48 52 53 53 55 52 44 42 41 40 45 56 59 51 45 42 42 50 60 62 59 58 62 66 62 54 51 54 55 55 54 55 60 62 67 81 93 97 98 97 98 100 100 99 98 101 103 101 100 94 80 75 88 100 103 104 104 98 94 95
103 99 97 101 103 102 98 91 90 90 84 83 85 85 86 80 73 72 72 71 69 66 64 59 55 52 47 48 50 54 58 53 46 46 45 41 40 42 46 43 36 35 43 50 48 47 51 57 58 58 59 57 56 55 53 58 61 55 55 59 65 77 85 91 97 96 96 100 101 100 101 100 101 102 99 100 96 83 83 95 102 105 107 107 104 102
98 92 86 85 88 87 85 80 78 77 74 74 76 76 74 69 67 65 61 61 60 57 56 56 57 55 52 54 56 58 60 56 54 54 51 47 45 43 41 40 38 40 44 40 36 41 49 54 54 54 54 53 53 55 56 58 60 62 64 65 77 96 99 96 99 98 100 106 103 99 101 99 100 104 99 100 103 93 85 91 99 104 106 108 108 105
82 83 81 75 70 68 71 71 67 64 62 62 63 64 64 64 65 64 61 61 60 60 60 59 61 60 59 64 66 65 66 66 65 63 60 56 52 48 46 44 44 47 47 40 35 38 42 45 50 53 54 52 49 52 56 55 61 78 86 83 87 95 98 101 100 97 102 108 104 97 99 100 100 102 98 97 103 100 88 84 91 99 101 102 104 104
86 92 90 82 72 67 67 66 64 63 62 62 62 61 62 64 66 66 67 68 67 67 67 66 67 68 69 72 74 73 74 73 70 67 66 63 58 52 50 49 49 51 50 45 41 41 40 39 41 44 49 50 48 47 49 51 70 95 99 97 102 97 97 103 100 97 101 105 104 99 97 99 100 101 98 97 103 103 90 79 80 86 90 93 96 99
101 104 99 92 87 84 80 72 67 67 66 66 66 66 68 71 74 76 76 76 76 75 76 76 77 77 78 79 80 79 76 73 70 67 66 64 60 57 54 53 52 51 50 49 49 47 44 42 41 41 41 41 40 41 42 45 69 99 104 103 106 100 98 103 99 97 101 105 107 104 97 92 96 101 99 97 102 101 94 85 76 76 81 83 87 91
103 107 100 96 98 99 97 92 85 79 76 74 72 71 73 77 80 82 83 83 83 82 83 85 84 84 84 83 83 80 76 72 66 61 61 61 62 62 62 62 59 54 54 55 54 51 49 48 47 46 45 42 37 37 38 40 55 82 98 103 104 97 94 99 101 99 100 104 106 104 100 94 96 101 99 100 103 99 99 98 89 87 88 83 81 82
98 106 103 101 105 101 99 102 102 98 96 93 86 82 83 87 90 92 93 91 90 89 90 90 89 89 87 85 83 78 73 69 64 60 56 55 60 65 68 73 69 62 64 66 62 59 57 54 54 55 54 49 42 39 39 40 45 57 74 87 95 95 92 93 97 96 98 105 107 107 107 101 97 96 95 100 103 97 99 102 99 102 102 96 90 84
91 103 106 108 109 104 102 100 100 102 103 102 101 99 98 99 100 101 100 96 95 97 95 91 90 91 88 84 81 75 70 67 68 65 57 53 56 59 70 84 79 70 72 76 72 69 66 63 63 65 65 58 51 45 43 43 43 46 54 63 71 77 78 77 78 78 83 94 100 99 100 102 101 98 91 83 82 88 98 102 100 103 105 106 104 100
85 99 108 110 106 103 100 93 93 102 104 102 102 104 104 102 101 101 98 97 98 99 94 91 92 94 92 86 80 75 72 70 68 65 64 66 61 52 63 85 84 74 75 77 74 73 74 73 70 71 73 70 64 57 53 51 48 47 49 51 54 56 59 61 62 63 64 70 77 81 89 100 103 104 95 74 65 76 88 95 98 101 101 101 103 106
84 93 103 107 103 99 95 91 93 101 103 98 93 94 95 92 90 90 94 99 102 100 96 96 98 99 97 90 82 81 82 77 69 68 75 85 81 63 62 77 82 76 72 73 75 76 78 77 73 71 72 72 72 68 62 57 54 53 50 50 50 49 50 52 51 55 62 62 61 64 74 83 89 102 107 93 82 83 86 88 90 92 90 84 91 104
85 88 92 97 98 96 98 101 101 99 96 88 84 85 85 85 87 91 97 105 110 110 104 98 97 99 100 92 84 85 90 87 77 74 81 93 97 87 75 75 79 74 67 69 74 76 74 73 73 72 70 69 69 67 64 60 56 54 51 49 49 47 47 46 44 56 79 88 79 72 71 69 72 89 104 104 97 88 87 90 83 80 79 69 77 100
86 82 80 86 93 97 102 107 106 99 91 86 89 95 97 95 94 98 102 104 105 104 98 90 88 92 93 88 83 86 95 99 93 88 93 97 97 95 87 79 78 76 71 70 73 74 73 71 72 72 70 67 65 64 64 61 57 54 52 50 49 46 45 44 41 48 69 87 93 97 96 84 74 81 93 102 103 94 93 97 83 72 69 60 65 90
69 67 66 71 79 89 100 105 103 97 92 94 101 105 104 96 86 87 93 92 88 87 86 88 93 97 98 96 97 99 101 107 106 103 104 100 94 91 86 79 77 78 76 71 68 70 71 70 71 70 65 61 60 61 62 60 59 57 53 50 49 47 45 45 43 41 47 61 77 94 103 90 74 77 82 82 84 84 81 79 67 57 57 55 57 70
55 55 56 61 68 77 88 96 97 94 92 96 97 95 95 92 87 92 98 96 93 95 98 101 103 103 101 99 103 104 102 105 106 102 101 100 98 97 94 89 81 73 70 71 70 69 69 72 72 68 64 62 61 61 60 59 58 57 54 51 48 47 45 44 42 40 43 51 57 66 83 88 82 85 89 79 61 51 48 46 43 42 47 53 57 59
71 64 53 52 58 67 76 84 88 87 86 89 92 92 91 93 99 106 106 104 102 99 100 103 102 99 96 97 103 104 102 106 107 103 102 101 101 102 101 101 97 83 72 74 76 74 74 77 75 66 62 63 66 67 64 62 59 56 53 50 46 44 43 40 38 36 36 39 38 36 52 82 99 103 106 95 63 38 34 35 35 36 40 54 77 86
76 77 69 61 61 67 74 82 89 92 89 85 87 89 91 97 104 104 101 103 104 101 99 101 105 107 103 102 106 103 98 100 104 106 106 104 104 106 102 103 107 99 86 82 86 85 78 71 65 61 60 63 70 75 72 68 63 55 51 49 45 43 40 37 36 35 32 31 32 28 30 50 70 74 73 67 48 34 32 33 33 34 35 44 67 84
82 87 87 84 82 81 82 87 94 99 96 88 82 81 83 90 95 94 96 102 105 105 105 104 106 107 106 105 107 104 98 99 102 105 106 106 107 107 105 106 110 108 100 96 97 91 77 64 55 53 55 61 73 80 75 67 61 54 48 45 42 40 37 35 32 32 31 30 30 30 28 29 35 38 38 37 34 33 33 32 33 34 34 33 38 46
97 95 87 87 91 89 90 93 93 91 86 82 82 84 83 87 95 100 103 105 105 102 100 102 104 100 95 98 105 108 106 105 106 106 108 110 109 106 106 107 108 106 100 96 89 79 71 65 56 52 53 59 69 77 73 64 56 50 45 42 38 36 33 32 31 30 31 32 30 31 32 31 31 31 32 32 33 34 34 35 36 35 34 34 33 31
95 91 78 77 82 83 88 91 87 83 80 81 89 95 96 99 104 104 97 94 96 93 88 91 97 94 89 92 100 105 106 106 109 111 111 108 105 103 103 99 95 94 92 89 86 77 69 64 58 59 69 75 75 71 66 58 51 46 41 37 34 33 31 30 30 30 30 32 35 36 36 38 38 38 38 38 38 38 39 39 39 38 36 35 35 35
87 93 90 83 75 73 78 79 77 78 79 83 89 91 93 99 102 99 92 89 90 88 84 88 93 94 96 101 104 106 105 104 106 109 110 107 100 96 95 93 93 96 94 88 82 73 64 56 53 62 79 86 78 66 57 51 46 41 37 34 33 33 34 34 34 36 37 39 42 44 46 47 48 49 48 47 46 46 46 46 46 45 43 40 38 37
60 76 89 85 71 66 73 82 87 87 88 92 95 92 89 91 96 100 97 94 93 87 83 87 90 88 88 91 96 103 107 108 107 105 105 107 107 103 100 97 92 89 87 82 75 69 64 60 59 67 75 74 64 55 48 42 38 35 34 34 34 35 39 45 47 48 48 47 47 47 48 50 51 53 54 54 54 52 50 50 50 49 48 46 44 41
52 56 61 59 52 50 57 69 77 79 84 93 95 96 97 95 99 109 109 103 102 96 86 82 81 76 72 74 80 87 93 97 100 99 97 100 107 109 107 100 88 77 75 76 77 77 73 67 62 59 56 51 45 41 38 34 32 33 34 37 41 47 53 57 57 55 51 49 48 48 47 49 51 53 54 55 55 56 55 53 51 49 48 46 45 44
59 58 53 49 50 50 51 54 54 53 58 62 61 67 75 73 73 87 96 95 94 93 87 82 78 73 72 79 87 92 95 98 102 105 104 104 106 106 105 101 94 85 78 78 81 79 68 57 49 42 37 35 33 32 33 33 35 38 42 47 53 58 61 60 56 55 54 54 54 52 50 51 51 51 51 52 53 55 56 56 55 53 50 48 45 44
57 55 50 47 49 53 56 59 60 60 59 55 51 51 54 53 50 54 60 62 61 60 60 60 59 55 54 61 72 81 85 86 87 90 96 100 101 100 101 100 95 89 83 79 77 68 51 41 38 36 34 34 34 35 37 40 43 47 50 54 56 58 59 59 56 55 56 58 60 59 58 59 58 55 53 53 53 54 54 55 55 54 54 53 51 49
62 57 54 52 51 53 58 60 62 64 63 61 60 59 59 63 62 60 60 58 54 54 55 56 55 53 51 52 55 59 60 58 57 56 59 65 67 70 74 75 72 69 66 62 59 52 44 39 39 39 39 39 40 42 43 44 48 50 52 53 54 54 54 56 58 59 61 64 67 68 68 68 66 63 59 58 57 56 56 56 55 54 55 55 55 54
71 63 61 62 61 59 60 60 60 62 64 63 65 65 66 68 67 65 65 63 58 59 63 65 64 62 60 58 58 59 58 56 55 54 54 56 56 56 57 57 55 54 52 49 48 47 46 47 47 46 46 46 47 48 48 49 50 51 52 54 56 58 58 60 64 66 65 65 66 67 66 66 66 66 66 65 64 63 61 59 57 55 54 54 54 54
86 75 70 70 68 63 60 61 63 66 71 72 70 66 62 62 63 62 62 60 61 65 68 71 73 72 69 64 62 61 61 59 58 60 64 66 64 63 63 63 62 61 60 58 57 56 55 55 55 55 55 55 55 55 54 55 55 53 53 55 59 63 63 63 63 63 61 60 61 62 62 63 66 69 70 70 70 68 65 61 58 55 53 52 51 50
102 95 87 81 77 71 67 66 68 70 71 69 68 65 60 59 61 61 58 59 65 70 71 72 77 80 79 75 68 65 64 65 67 71 76 78 75 71 68 67 67 66 65 63 62 61 61 60 60 61 61 62 63 62 59 58 59 58 56 57 60 62 61 59 58 59 60 61 63 65 66 67 67 68 68 67 66 64 62 59 56 53 51 49 47 47
106 105 102 97 92 86 81 79 79 78 73 68 66 65 64 65 66 64 62 63 66 68 68 69 71 74 76 76 73 71 70 71 72 74 77 80 80 76 71 65 64 65 65 66 67 67 67 67 67 68 68 67 67 67 66 65 65 63 60 61 62 61 60 60 60 61 62 64 66 68 69 67 65 62 60 59 59 59 58 56 53 51 49 48 46 46
103 102 101 98 97 96 95 93 92 90 83 77 74 70 68 72 74 72 70 71 72 72 74 76 75 73 72 71 71 72 73 73 73 72 71 71 73 75 74 71 69 68 69 71 73 75 75 76 77 78 76 72 68 65 63 62 62 60 59 62 65 64 64 65 66 65 66 66 67 67 64 61 58 55 54 53 52 53 53 52 51 49 47 46 45 46
92 89 89 87 88 96 104 104 100 95 85 74 70 69 70 73 74 72 72 74 73 72 74 77 77 74 70 67 65 65 66 68 70 72 74 75 75 75 77 78 77 74 72 70 70 72 72 71 72 73 72 68 65 61 57 54 54 55 56 60 64 66 67 67 67 65 65 64 63 60 56 53 51 50 50 49 48 47 48 49 50 50 48 47 46 45
72 72 81 84 81 85 92 90 83 80 75 70 69 70 71 69 66 64 64 63 61 59 59 60 62 62 60 59 60 60 61 63 64 66 68 70 70 70 70 69 69 68 66 64 62 62 62 61 61 62 62 63 62 61 58 54 52 52 54 58 62 64 66 66 63 61 59 57 53 50 47 46 46 46 46 46 45 45 45 45 47 48 50 49 47 45
61 61 71 76 71 69 73 69 61 59 61 63 65 64 61 58 57 57 57 54 51 50 49 49 49 49 48 48 48 49 50 51 51 52 54 55 57 58 59 58 58 58 57 57 56 54 53 53 53 54 55 57 58 58 56 54 51 50 51 54 56 56 55 55 54 52 49 45 42 41 40 41 43 44 45 45 43 41 40 41 42 44 46 46 45 44
57 58 61 61 59 61 63 59 54 55 55 53 51 49 47 47 47 47 47 46 45 45 45 45 45 44 43 40 38 38 39 39 38 38 40 41 42 44 45 47 47 47 47 46 46 45 44 43 43 44 45 46 48 48 48 47 45 44 44 44 44 44 43 42 42 41 41 40 38 38 40 43 44 44 44 42 39 36 34 34 36 38 40 41 41 42
52 54 55 55 54 56 55 50 49 52 51 47 44 41 40 39 38 36 35 36 37 37 38 38 38 37 37 34 32 31 31 31 31 30 30 31 31 32 33 35 35 35 36 35 34 33 33 32 32 32 33 34 35 35 36 36 36 36 36 36 37 37 36 36 37 38 39 39 38 39 41 44 43 41 38 36 34 32 31 32 34 35 36 36 38 39
44 48 51 53 53 51 48 46 47 47 45 42 39 36 34 33 32 32 31 29 30 30 30 31 31 30 30 30 28 27 27 28 28 27 27 27 27 27 27 28 29 30 30 30 29 27 26 25 24 24 24 24 26 27 27 28 29 31 32 33 33 34 33 33 35 36 36 37 38 39 39 38 37 36 34 32 32 32 31 32 33 34 36 36 36 37
39 42 43 44 44 43 41 41 43 43 41 38 35 31 30 30 29 29 27 25 24 24 23 24 24 23 23 24 24 24 24 25 25 24 24 24 24 23 23 23 24 25 26 27 27 25 22 21 20 19 19 20 21 22 22 23 25 27 29 29 29 29 29 29 30 31 32 33 35 36 35 34 33 32 31 31 32 34 36 36 34 33 35 37 37 37
32 32 32 32 32 34 34 34 35 36 35 34 32 29 27 26 25 24 23 22 22 21 20 19 19 20 20 21 21 21 21 22 23 22 22 21 21 20 20 20 21 21 21 21 22 21 20 20 19 18 18 18 18 19 19 20 23 24 25 26 26 26 25 26 27 29 30 30 30 30 31 33 32 29 29 32 33 35 38 39 36 33 33 35 37 39
Wind_Speed
44 44 45 45 47 48 48 48 50 50 50 49 48 47 48 48 49 50 48 43 38 37 39 42 41 41 41 38 37 34 31 31 31 31 30 28 28 29 29 31 32 32 32 33 36 39 41 43 44 45 47 50 52 54 56 56 56 57 57 57 58 59 60 60 61 61 62 62 61 58 54 51 48 45 43 43 43 41 41 43 43 44 46 49 52 56
45 45 45 46 47 48 48 49 50 49 48 47 46 45 45 46 48 48 47 41 36 37 40 40 42 43 41 38 37 36 33 32 33 34 33 31 29 28 28 30 32 33 33 35 38 40 42 42 42 42 44 48 52 55 57 57 57 57 57 57 57 57 56 55 56 56 56 55 52 47 43 43 43 43 42 41 41 39 38 39 41 41 42 45 47 49
45 45 45 45 47 49 48 48 47 46 46 45 44 44 44 46 47 46 46 41 36 37 40 40 42 43 41 38 38 38 35 35 36 35 36 35 31 29 28 29 31 32 33 35 39 42 43 42 42 42 42 44 46 49 52 53 54 54 54 53 53 52 51 50 50 50 48 46 43 40 40 41 42 43 42 40 39 38 37 37 38 39 39 40 42 44
45 45 43 44 46 47 46 45 45 44 44 44 43 43 44 45 47 46 45 41 36 35 39 42 43 43 42 39 39 40 38 37 36 35 39 38 33 32 31 29 30 30 30 32 36 39 42 42 43 44 44 45 45 45 47 48 49 50 50 49 49 49 47 46 44 43 42 41 40 40 40 41 42 42 42 40 39 38 37 36 36 36 37 37 38 39
44 43 41 42 45 46 44 44 43 43 43 42 42 43 44 45 46 46 43 40 37 36 41 45 43 41 42 40 38 40 40 38 35 36 41 40 35 35 33 30 31 31 30 31 33 35 38 40 41 41 43 45 46 46 46 46 47 47 46 45 45 43 42 42 41 39 38 38 40 41 41 42 42 41 41 41 40 39 38 37 35 35 35 35 36 36
43 40 40 42 45 44 43 43 43 42 42 42 43 43 44 45 45 45 43 40 40 40 43 45 42 40 42 41 39 40 41 38 34 37 41 39 38 38 34 31 32 32 33 33 34 34 36 38 38 38 39 42 43 44 43 43 44 44 44 42 41 40 39 37 36 36 37 39 42 43 42 43 43 42 41 41 41 40 39 37 36 34 34 34 34 34
41 39 39 42 45 44 43 43 43 43 43 43 43 43 44 45 45 44 43 41 41 43 43 41 40 41 41 41 40 40 40 36 33 37 40 38 39 39 34 31 32 33 34 34 35 36 37 38 38 39 39 40 41 41 40 40 41 42 41 39 38 37 33 31 34 38 41 45 48 47 44 43 44 43 41 40 40 41 40 38 36 35 34 33 33 33
40 38 39 42 45 44 43 43 43 42 43 43 44 44 44 44 44 44 43 41 41 43 42 39 40 40 40 40 40 40 38 34 31 35 38 37 38 38 35 30 30 33 34 35 36 37 37 38 39 40 41 41 41 40 40 39 39 41 41 38 36 34 30 30 33 37 40 43 46 46 44 43 43 43 42 41 40 40 40 39 37 35 34 33 33 33
40 39 39 41 44 44 43 43 43 42 43 44 44 44 44 45 45 45 43 42 41 41 40 39 40 40 40 40 40 39 38 33 29 34 38 37 36 36 34 30 29 31 33 33 33 34 35 37 39 40 40 41 41 40 40 40 40 41 41 39 35 34 34 33 31 32 34 36 38 40 41 42 42 41 42 42 41 40 40 40 38 36 34 34 33 33
40 39 39 40 43 44 43 43 42 42 44 44 44 44 44 45 45 44 42 41 40 38 39 41 40 39 38 40 40 39 38 34 30 33 38 38 36 34 34 33 31 30 30 30 30 31 33 36 37 36 36 37 38 39 40 40 41 41 42 40 37 38 39 37 34 32 32 35 39 41 42 43 43 43 44 44 43 41 40 40 39 37 35 34 34 34
39 38 39 40 43 44 42 42 41 42 43 44 43 44 44 44 45 44 42 40 39 38 40 43 42 38 35 38 41 40 40 37 32 34 38 39 37 35 37 37 34 32 29 27 28 30 34 36 34 32 31 32 34 35 36 37 38 39 41 41 41 42 42 39 36 34 35 40 45 46 46 47 46 46 45 44 43 42 41 41 40 39 37 36 35 35
39 38 39 41 43 43 42 41 41 42 44 44 44 44 44 44 44 42 41 39 39 39 42 44 43 38 34 38 42 42 43 41 37 37 39 38 36 38 41 40 37 34 30 27 29 33 36 36 34 32 31 31 30 31 33 34 34 35 38 42 46 47 45 42 39 39 41 45 46 46 46 47 47 46 44 42 43 43 42 41 41 40 39 38 36 35
40 39 40 42 42 42 42 41 41 42 43 43 43 42 43 44 42 41 41 40 40 42 43 44 44 40 37 40 43 45 46 44 42 41 41 39 37 40 44 41 38 35 31 31 34 36 36 35 36 35 34 33 31 31 32 32 32 32 34 39 45 47 47 47 46 46 44 44 45 45 45 45 47 46 44 42 42 43 43 42 42 42 41 40 39 37
41 40 40 41 42 43 42 41 41 43 43 42 42 42 43 43 42 42 42 42 42 43 44 44 45 43 41 42 45 46 47 47 45 45 44 42 41 43 45 43 39 37 37 39 38 35 35 37 38 38 37 36 34 34 33 32 33 33 32 35 39 41 43 44 45 45 45 44 45 45 44 44 46 45 44 43 42 43 44 43 44 45 44 43 41 40
40 40 40 41 42 42 42 43 43 44 43 42 43 43 43 43 43 44 44 44 44 44 45 45 46 46 45 45 46 48 49 49 48 49 48 47 46 46 45 43 42 42 45 45 40 37 38 38 39 39 39 38 36 35 34 34 33 32 34 37 37 37 40 43 46 46 47 48 47 45 43 42 43 44 43 44 43 43 45 45 45 46 46 46 45 43
39 40 41 43 42 40 42 46 45 44 43 42 43 44 45 45 45 46 46 47 46 45 46 46 47 48 47 47 49 50 50 51 51 51 51 52 52 50 47 45 45 47 50 48 43 42 42 40 40 40 41 40 37 35 35 35 30 30 38 41 38 38 39 44 50 50 48 51 51 48 44 42 42 44 44 44 44 43 44 46 46 47 48 48 48 47
41 43 44 44 42 39 44 48 46 46 45 44 46 47 46 46 47 47 48 49 48 47 48 49 49 50 50 51 53 52 52 54 55 53 54 56 56 54 51 50 49 51 52 50 48 47 46 45 44 43 43 41 39 37 36 34 30 33 43 44 42 42 42 43 51 52 50 52 55 54 49 44 42 43 43 44 44 44 45 47 47 47 48 49 49 49
43 46 45 44 43 42 46 48 47 48 48 47 49 49 47 48 49 49 50 50 50 49 50 51 52 53 53 54 55 56 55 57 57 55 56 58 58 57 56 54 54 54 54 52 51 51 49 48 47 46 46 44 42 39 38 37 36 39 46 48 47 47 47 48 53 57 56 54 56 58 53 48 45 45 46 46 46 47 49 49 48 47 48 49 50 51
45 48 47 45 46 46 47 48 49 49 49 51 52 50 50 51 52 52 52 53 53 52 53 55 55 55 56 56 57 58 58 60 60 58 57 58 59 58 57 57 57 56 54 53 53 52 51 50 49 49 49 48 45 43 41 40 42 44 47 50 51 50 51 53 55 59 60 56 56 57 55 53 51 51 51 50 48 49 51 49 46 47 49 49 49 51
46 49 49 48 50 49 48 50 51 51 52 53 55 53 52 54 54 55 55 55 55 55 56 57 57 58 58 58 59 59 59 61 62 61 60 58 57 56 56 57 59 56 54 54 53 52 52 51 50 50 50 50 48 46 45 44 45 48 51 53 53 52 53 55 57 59 60 58 57 56 55 57 58 58 58 56 53 52 51 48 45 46 49 50 51 52
48 50 50 52 53 52 52 52 52 53 54 55 56 55 55 56 57 57 58 58 58 58 59 59 58 59 60 60 59 60 60 61 62 63 61 59 56 54 52 56 58 55 52 52 52 51 51 51 50 50 50 51 50 48 48 47 48 50 52 54 55 55 57 58 59 60 61 61 61 60 59 59 61 64 66 65 62 59 55 51 47 47 49 52 54 54
50 50 52 54 55 54 55 54 52 54 56 57 56 57 57 58 58 59 59 59 59 60 60 59 59 60 61 60 59 59 60 60 61 62 60 59 57 52 49 53 56 53 50 51 50 49 49 49 49 48 49 50 50 49 49 49 49 50 52 54 55 56 57 58 59 60 62 63 63 63 62 62 62 65 70 70 68 65 62 58 56 56 55 57 58 58
53 53 54 57 57 56 56 55 55 57 59 60 58 58 59 59 59 59 59 60 61 61 61 59 59 59 60 61 59 58 59 60 61 60 58 57 56 52 49 51 53 52 50 49 49 48 48 48 48 48 48 48 48 49 49 49 49 50 51 53 54 55 56 56 57 56 56 60 63 65 66 65 65 66 69 71 70 68 68 67 66 64 62 62 62 61
58 58 58 59 59 58 57 58 59 61 63 61 59 59 60 60 59 59 58 59 60 61 61 60 59 59 60 61 59 58 59 61 60 59 57 56 55 54 52 51 52 53 52 50 49 49 49 48 48 48 48 48 48 49 49 50 50 50 51 52 53 55 55 55 54 50 45 44 48 56 64 67 68 68 68 69 69 69 68 67 66 64 63 64 65 63
62 62 60 60 59 59 59 61 62 64 63 60 58 59 60 59 58 58 59 60 60 62 63 62 61 61 61 61 60 58 59 60 60 58 57 57 55 55 55 54 53 54 54 52 50 50 50 48 48 48 48 48 48 49 50 51 51 51 51 52 53 54 54 53 53 51 47 42 37 41 52 60 64 67 68 68 69 70 69 68 67 66 66 67 67 66
63 62 60 59 59 58 60 62 63 63 60 57 58 59 59 60 59 58 60 62 62 63 62 61 61 60 60 59 58 58 57 59 60 58 58 58 57 57 57 56 56 56 56 54 52 51 51 50 49 49 49 49 48 48 49 49 50 50 51 52 52 53 53 52 52 51 52 50 45 44 49 55 59 63 67 69 71 72 71 70 69 68 67 68 70 70
63 62 60 59 59 58 60 62 63 62 60 58 59 59 59 59 58 58 60 61 61 61 59 59 60 60 59 59 58 58 57 59 60 60 59 59 58 58 58 58 59 59 57 55 54 53 52 51 51 51 50 50 50 50 49 49 50 50 51 52 52 52 52 52 52 51 50 50 50 51 50 49 49 50 55 63 66 67 67 66 65 65 64 64 65 66
62 63 62 60 59 59 60 61 63 63 61 59 60 60 60 59 58 59 61 61 62 62 60 61 62 61 61 62 61 60 59 60 61 62 61 60 59 58 57 58 62 63 59 57 57 56 54 53 54 53 51 50 51 52 52 52 52 52 52 52 52 52 52 52 52 53 53 52 53 53 49 44 41 43 48 55 59 60 62 62 61 61 60 57 55 56
61 61 62 60 59 59 59 60 62 63 62 61 60 60 60 60 61 63 62 62 64 64 62 63 63 63 64 65 64 63 61 60 61 62 62 61 60 61 60 61 64 65 62 59 59 59 59 57 56 54 52 51 51 52 52 52 53 53 53 53 53 53 53 53 53 53 54 54 54 55 54 53 52 53 56 58 59 59 59 59 59 59 58 56 55 57
59 60 60 59 59 59 59 60 62 63 64 62 61 61 62 64 65 65 64 64 65 65 64 65 66 66 67 66 65 65 64 62 62 63 63 63 63 63 62 63 65 65 64 62 61 62 62 61 58 55 53 51 51 52 52 52 54 55 55 54 54 54 53 53 53 53 54 55 55 55 57 58 60 61 62 62 61 59 59 59 59 59 59 59 60 60
57 59 58 56 58 58 59 60 61 62 62 60 59 61 63 64 64 65 66 66 67 68 67 67 69 70 69 67 66 66 66 64 64 64 65 65 66 66 65 66 66 67 67 66 66 65 63 62 60 57 55 53 52 52 53 53 53 54 55 55 54 53 53 53 53 53 53 54 55 56 56 58 59 60 60 60 60 59 59 59 59 59 60 60 60 60
54 57 55 53 55 55 56 58 59 59 57 55 57 60 61 61 63 65 66 66 67 68 67 67 70 71 70 67 66 67 66 66 66 66 67 68 68 69 69 69 69 69 69 68 67 66 64 61 59 56 54 54 54 54 54 53 53 54 54 54 53 52 52 52 53 53 54 54 54 55 56 57 58 58 59 59 59 60 60 60 60 60 60 60 60 60
51 53 54 53 52 51 52 54 54 54 52 53 56 59 58 59 61 63 64 64 65 65 64 65 67 68 67 66 66 66 67 67 67 68 69 70 70 70 70 70 70 69 69 69 68 67 65 61 56 53 53 55 56 56 56 53 52 53 53 52 52 52 53 54 54 54 55 55 56 56 56 57 57 58 59 60 61 61 62 62 62 62 62 62 62 62
48 51 54 54 50 48 49 50 51 51 50 52 56 56 55 56 57 60 62 63 64 63 62 63 65 65 64 63 64 64 66 67 68 69 69 69 70 71 70 71 71 69 69 69 68 66 64 60 56 54 54 56 57 58 58 54 50 51 52 52 53 55 55 56 57 57 57 58 58 57 57 57 58 59 60 61 62 63 64 64 65 65 65 65 65 65
50 52 55 53 49 47 48 50 51 50 51 54 55 54 54 54 54 58 62 62 62 62 62 62 62 61 59 59 60 61 63 65 67 68 67 67 68 69 70 71 71 69 67 67 67 66 64 60 58 56 56 56 57 58 57 52 49 51 53 54 55 57 58 58 58 58 59 59 59 59 59 59 60 61 62 62 63 64 65 66 66 67 67 68 68 68
54 56 56 52 49 48 48 50 51 51 53 56 54 53 55 56 55 57 61 62 61 61 62 62 61 58 56 57 59 60 61 63 65 66 66 66 66 67 69 70 71 70 68 66 66 66 65 62 61 60 59 59 59 57 54 51 51 54 56 56 57 60 61 61 60 60 61 61 61 62 61 62 63 64 64 65 65 66 67 67 68 69 69 69 70 70
58 59 57 54 52 51 51 53 53 53 56 57 56 54 55 57 58 58 60 61 60 60 62 62 61 59 56 55 58 60 62 64 65 64 64 65 65 66 69 70 70 70 70 69 69 69 67 64 63 64 64 62 60 58 55 53 54 56 59 60 61 62 63 63 63 63 63 63 64 64 64 64 66 66 66 67 67 68 68 69 70 70 70 71 71 71
62 61 59 57 55 54 55 56 56 57 59 59 58 58 57 59 61 61 62 63 61 60 63 63 63 62 60 58 59 62 64 66 65 63 62 63 64 66 68 70 71 72 72 71 71 71 70 68 68 68 68 65 63 62 60 58 57 58 61 64 65 65 65 65 66 66 66 65 66 67 66 67 68 69 69 70 70 70 70 71 72 72 72 72 72 73
66 64 61 60 60 59 59 59 59 60 61 61 61 62 62 63 64 64 64 65 63 62 64 65 65 65 65 64 64 65 67 67 66 64 64 65 66 66 68 70 72 73 74 73 72 71 71 72 72 72 71 69 68 67 65 62 61 62 64 66 68 68 68 67 68 70 69 68 68 69 69 69 70 70 71 72 72 73 73 73 73 73 73 73 73 73
69 67 65 64 64 63 62 62 62 63 64 64 65 66 65 65 66 66 67 66 64 64 65 66 68 69 70 69 68 68 69 69 67 66 67 69 70 69 70 72 74 76 76 76 75 73 73 74 74 75 75 74 74 73 70 68 66 67 68 68 70 71 71 71 72 72 71 70 70 71 71 71 72 72 72 73 74 74 75 75 75 75 74 74 74 73
70 70 69 68 67 67 66 66 66 67 68 68 68 69 68 67 68 69 69 67 66 68 68 68 69 72 73 73 72 71 71 70 70 70 71 74 75 75 74 75 77 79 79 78 78 77 76 76 77 77 77 77 78 78 77 74 71 71 71 72 73 74 75 74 73 73 73 73 72 73 74 74 74 74 74 74 74 75 76 76 77 76 76 75 75 73
71 71 71 71 70 70 69 69 70 71 72 71 71 71 70 70 71 72 71 70 71 71 71 71 72 74 75 75 75 74 74 73 74 75 76 77 79 80 79 78 79 80 81 81 81 80 80 79 79 80 81 81 81 82 82 80 78 76 74 75 76 77 77 76 76 75 75 75 75 76 76 76 76 75 75 74 74 74 75 76 77 77 76 76 75 74
72 72 72 72 71 71 72 73 73 75 75 74 73 73 72 72 73 74 73 73 74 74 74 75 77 77 77 78 78 78 78 77 77 78 78 79 81 81 82 82 82 82 82 83 83 83 83 83 82 83 84 84 84 84 84 83 82 80 77 77 78 80 80 79 79 79 78 78 78 78 78 77 76 76 75 74 74 73 73 74 76 76 76 75 74 73
73 73 72 72 71 71 74 76 77 77 77 76 74 74 74 74 75 75 75 75 76 77 77 78 80 81 81 81 80 80 80 79 79 79 80 81 83 83 84 84 85 85 85 85 86 86 86 85 85 85 86 86 87 87 86 85 84 82 80 79 80 82 82 82 82 81 81 80 80 79 78 76 75 75 75 74 73 72 71 72 74 74 75 74 73 72
74 73 73 74 73 74 76 79 78 77 77 77 76 76 77 77 77 76 77 78 78 79 79 80 81 82 82 82 81 81 81 81 81 81 82 83 85 86 86 87 87 88 88 88 88 88 88 88 87 87 87 88 88 89 89 88 87 85 83 82 82 83 84 84 84 83 82 81 80 78 77 75 74 74 73 73 73 72 71 71 71 72 72 72 71 71
75 74 75 76 77 77 78 80 78 77 77 78 79 80 79 79 78 78 79 80 80 80 80 81 81 81 82 82 82 82 82 83 83 83 83 84 85 86 87 88 88 88 89 90 90 90 90 90 89 88 88 88 89 90 90 90 89 87 85 84 84 84 84 83 83 82 81 80 78 76 74 73 73 72 73 73 73 72 71 70 69 68 68 69 69 69
76 76 77 77 77 78 80 80 79 78 79 80 80 80 79 78 78 78 79 79 79 80 80 81 82 82 82 82 82 81 82 82 82 81 81 82 83 84 85 87 87 88 88 89 89 90 90 89 88 87 87 87 87 88 89 89 88 87 85 84 83 82 81 80 79 79 78 77 75 73 72 72 72 72 72 72 72 71 68 66 64 64 65 66 66 66
74 76 76 76 77 78 80 79 78 78 80 80 80 79 78 77 76 76 75 75 76 77 78 78 79 80 80 80 80 79 79 79 79 79 78 78 79 80 81 82 84 84 85 86 86 87 87 86 85 84 83 83 83 83 84 84 84 83 83 81 80 79 78 76 75 75 74 74 73 71 70 71 72 72 71 70 69 68 64 61 61 63 63 62 62 63
70 72 73 75 76 78 78 76 76 77 78 77 77 76 75 73 73 72 72 71 71 72 72 73 73 74 74 74 75 74 74 74 75 75 74 74 75 75 76 77 78 78 80 81 82 82 81 80 79 78 77 76 76 76 77 77 76 77 77 77 76 75 73 72 71 71 70 70 69 69 69 70 69 69 68 66 65 63 61 60 61 61 60 60 60 60
66 67 69 70 72 72 72 72 72 74 74 74 73 72 70 70 69 68 68 68 67 66 66 66 67 67 67 67 68 68 68 69 70 70 70 70 71 71 71 71 71 72 73 75 76 77 76 75 74 73 71 69 69 70 70 69 69 70 70 70 70 70 69 67 66 66 66 66 67 67 67 67 67 66 64 63 61 59 60 61 62 59 57 58 58 58
60 62 62 63 63 64 65 65 66 67 68 68 68 67 66 65 64 64 64 63 63 63 63 62 61 61 62 62 63 63 63 64 66 67 67 67 68 68 67 67 67 67 68 68 69 71 71 70 70 70 68 66 65 65 64 64 64 64 65 66 66 66 65 64 63 63 64 64 65 64 63 64 65 64 61 59 58 58 59 62 62 59 56 55 55 55
Wind_Direction
255 256 257 258 259 259 260 260 259 259 260 261 261 261 262 263 262 261 260 259 257 257 261 265 267 266 267 269 269 266 262 264 270 269 263 257 251 247 247 249 251 249 246 242 239 238 235 233 234 237 240 242 242 242 243 245 249 254 259 264 269 274 277 280 281 282 284 285 286 286 287 287 288 287 287 287 285 284 281 277 273 269 264 260 258 257
256 257 258 259 259 259 259 258 259 260 260 259 259 259 260 261 261 262 263 260 255 254 255 259 266 268 268 269 271 270 264 261 263 265 265 260 254 249 245 245 247 246 243 237 235 237 237 236 236 237 240 243 244 245 246 248 253 258 263 268 272 276 279 281 282 283 284 284 285 286 287 290 293 294 293 292 291 289 286 282 278 274 269 266 262 260
256 257 257 258 259 258 257 257 258 259 258 258 258 258 257 259 261 262 264 261 256 256 257 258 263 267 269 269 269 269 266 262 261 263 265 262 257 253 247 245 247 247 246 241 237 236 237 237 237 238 240 244 246 247 249 252 256 260 265 268 272 275 278 280 280 281 282 282 284 289 292 294 296 296 296 295 295 294 290 286 282 279 275 271 268 265
256 256 257 257 257 256 257 257 256 256 257 258 258 258 257 258 261 262 263 264 261 260 264 263 262 264 267 267 268 269 267 264 262 264 265 262 258 254 250 248 250 251 250 248 245 242 241 240 239 240 242 245 247 249 251 253 256 259 262 266 269 272 273 275 277 278 278 280 287 294 295 295 296 297 297 296 296 296 293 290 286 284 281 277 273 269
256 256 255 254 254 255 255 255 255 255 256 257 257 258 258 259 261 262 263 265 263 260 263 264 263 265 267 267 268 268 267 264 263 263 264 264 261 256 250 246 248 248 247 247 248 248 248 247 246 245 246 248 249 250 252 254 255 257 259 262 265 267 270 273 274 274 275 279 289 295 294 293 293 293 295 296 296 296 295 293 290 287 283 280 276 272
255 255 254 253 252 253 253 253 254 254 254 255 256 257 259 260 261 263 263 262 262 260 259 263 265 267 268 268 266 266 266 265 265 264 265 266 265 261 254 249 247 245 244 244 245 246 248 251 251 250 249 250 250 250 250 252 254 254 255 258 261 265 270 275 276 275 276 280 287 291 290 290 290 289 290 293 294 295 295 294 292 289 285 282 278 274
255 253 252 252 252 252 252 253 253 253 253 254 256 257 259 260 261 262 262 261 262 261 260 263 266 267 268 268 266 265 266 266 266 266 266 267 267 266 262 256 252 248 245 244 245 246 246 247 249 249 248 250 250 249 248 249 252 253 254 257 261 265 269 271 273 275 276 277 281 285 284 285 288 286 284 286 289 291 293 293 293 290 287 283 280 276
253 251 250 252 254 253 253 253 254 254 255 255 256 257 259 260 261 261 262 262 262 263 264 265 266 266 267 267 267 267 267 267 267 268 268 267 267 268 266 262 259 256 251 247 246 247 248 248 249 249 248 248 249 249 250 249 252 255 256 256 258 259 256 255 264 274 276 274 277 282 282 282 284 284 282 282 282 285 288 290 290 290 287 284 280 277
251 251 250 252 255 255 254 254 255 255 255 256 257 258 259 260 260 260 262 262 262 265 267 266 264 265 266 267 268 268 269 269 267 268 269 267 266 268 269 266 261 259 257 253 251 250 252 253 252 252 251 250 251 251 252 252 253 255 255 255 252 246 240 240 253 273 281 279 280 284 285 283 283 282 282 280 277 278 282 285 287 287 286 284 280 276
252 252 252 254 256 257 256 257 257 257 257 257 257 258 258 259 261 261 262 262 263 265 266 265 262 263 266 269 270 270 270 268 264 265 268 269 269 269 271 268 263 259 259 259 258 257 257 256 255 255 255 255 256 255 254 254 253 254 254 253 248 239 233 234 244 261 274 280 283 285 285 284 284 284 283 279 275 274 277 279 282 284 284 283 279 275
252 253 254 255 257 258 258 258 258 258 258 257 257 257 258 259 260 261 261 262 264 264 264 265 264 264 267 270 272 272 272 269 265 263 265 268 271 272 270 268 266 263 261 262 264 264 263 261 260 259 259 258 259 259 258 257 255 255 255 253 249 241 234 237 245 254 265 276 281 282 283 282 283 285 283 279 274 272 272 274 276 279 280 280 278 274
254 255 255 256 257 259 259 258 258 257 257 256 256 256 257 257 258 260 261 262 263 263 263 265 267 267 267 269 271 272 272 272 270 267 266 267 271 272 270 268 268 266 263 262 260 259 262 264 265 265 262 260 259 260 261 261 259 257 255 252 250 245 240 243 250 255 264 273 277 279 280 280 280 283 283 280 274 270 269 269 271 273 274 275 275 273
256 255 255 257 258 259 259 258 258 256 256 256 256 256 256 257 258 259 260 260 261 262 264 266 268 269 268 268 270 272 273 274 273 271 271 271 270 270 270 271 271 271 269 263 255 253 256 261 262 263 263 261 261 260 261 263 264 261 257 254 253 252 250 252 256 260 266 270 273 275 278 280 280 280 281 280 276 271 267 266 267 267 268 269 270 270
255 255 255 256 258 259 259 259 258 257 256 256 256 256 256 257 258 259 259 260 260 262 264 267 269 271 270 269 270 271 272 273 274 274 274 273 272 270 271 274 276 276 272 265 260 257 256 257 257 258 259 259 259 259 260 261 263 264 263 261 260 261 261 261 259 261 264 267 270 273 274 278 280 279 279 280 277 273 268 265 265 264 264 264 264 265
254 256 256 256 256 258 261 260 257 257 256 255 255 256 257 258 259 260 261 261 262 263 265 267 268 269 270 271 270 270 272 274 275 275 275 275 273 272 273 276 277 275 271 268 267 264 260 258 257 257 257 256 255 257 258 258 260 266 268 266 263 265 267 267 263 261 263 265 268 269 271 274 276 276 278 278 277 273 268 266 264 263 262 261 261 260
254 255 256 255 255 256 259 259 258 257 256 255 256 256 257 258 259 260 261 263 263 264 266 267 268 269 269 270 270 271 273 274 274 275 276 276 275 274 275 275 274 272 271 271 271 268 265 262 259 257 257 256 254 253 253 255 257 263 266 264 260 259 261 266 264 260 262 264 264 265 268 270 272 274 275 274 274 272 269 267 265 264 263 262 261 259
255 256 255 256 256 255 256 258 258 259 258 256 256 255 256 257 258 260 260 261 262 263 265 265 266 268 268 268 269 271 271 272 272 273 274 275 275 276 275 273 272 270 270 272 271 269 267 264 262 260 258 257 254 251 249 249 247 247 252 252 251 251 252 258 262 261 262 264 261 261 264 267 269 271 272 270 269 269 269 269 268 266 265 264 263 262
255 257 257 257 258 256 256 257 258 258 258 257 256 256 257 258 258 259 259 260 261 262 263 264 265 266 267 268 269 270 271 271 272 272 273 273 275 275 275 274 271 269 269 269 269 268 267 266 265 263 261 258 255 251 248 245 241 241 245 245 244 245 246 250 256 260 263 263 258 258 261 264 265 265 267 268 267 268 270 270 269 268 267 266 264 263
255 258 259 259 259 258 258 259 259 259 259 258 257 256 257 258 259 259 260 261 262 263 263 264 265 266 267 268 269 270 271 272 272 272 272 272 273 273 274 273 271 270 269 268 267 267 267 266 265 264 264 262 259 255 251 246 242 241 244 246 245 244 245 246 249 256 261 261 258 256 256 257 259 261 263 265 267 269 270 268 268 270 270 268 266 265
256 259 261 261 261 260 259 259 259 259 258 258 259 258 258 259 260 260 261 261 263 264 264 265 266 267 268 268 269 270 272 273 274 274 272 270 270 271 272 271 270 269 269 268 267 267 266 266 265 265 264 263 261 258 254 250 246 245 245 247 248 248 247 247 248 252 257 260 260 258 255 254 257 259 261 263 266 268 266 262 265 270 270 270 271 268
258 260 262 261 260 260 259 258 259 260 260 259 260 260 259 259 260 260 261 262 263 264 265 265 267 268 268 269 270 271 272 272 273 273 272 271 269 268 269 269 269 269 268 268 267 267 266 266 265 265 265 264 263 260 258 254 251 249 248 249 249 249 249 250 251 252 255 259 261 262 259 256 257 259 261 263 264 265 262 259 262 269 269 269 270 267
259 259 260 260 260 260 260 260 260 261 261 260 259 260 261 260 261 262 264 265 265 265 265 267 268 269 270 270 271 272 272 272 271 272 273 272 271 269 268 268 269 269 268 267 267 267 267 265 264 263 263 264 264 263 260 258 255 253 252 252 252 251 251 251 252 253 255 257 259 261 260 257 256 258 260 262 263 263 262 260 262 267 268 267 267 266
258 257 258 260 261 262 263 263 262 260 260 260 260 261 262 263 264 264 266 267 267 267 267 267 268 268 269 270 270 271 271 270 271 271 272 273 273 272 269 267 269 269 267 267 267 267 265 265 265 264 263 263 264 264 262 260 259 257 256 256 255 255 254 253 254 256 257 258 259 259 258 257 257 257 259 261 261 261 262 262 263 265 266 265 266 266
259 258 257 259 262 263 264 263 262 261 261 262 264 265 265 266 266 267 267 267 267 268 267 266 267 267 268 268 269 269 269 269 270 271 271 272 273 273 270 268 268 268 267 267 267 267 266 266 267 267 266 266 265 265 265 264 262 261 260 259 258 257 256 255 255 253 252 255 258 259 259 257 257 257 257 258 259 260 262 263 263 263 263 263 264 264
259 259 259 260 261 263 263 262 262 263 264 266 267 267 266 266 265 265 265 265 265 266 266 267 268 267 267 268 269 269 269 270 271 271 271 271 271 271 271 270 270 270 270 269 268 269 269 269 269 269 269 269 268 267 266 265 264 263 262 261 260 259 258 257 255 250 245 244 248 257 260 258 256 256 255 256 258 259 260 262 263 264 263 263 262 261
261 261 261 260 260 261 261 262 263 264 265 265 264 264 264 265 265 265 265 265 266 267 268 269 269 268 268 269 269 269 269 270 270 270 270 270 271 271 272 272 271 270 271 270 270 270 271 272 272 271 271 271 270 268 266 265 265 264 263 262 261 260 259 258 256 253 249 245 240 243 253 259 261 260 258 258 258 259 260 261 262 263 262 262 261 260
264 263 261 260 260 260 260 261 263 263 263 263 263 263 264 265 266 266 266 266 266 266 267 267 266 266 267 266 266 265 266 267 268 268 269 270 271 272 274 274 273 271 270 272 272 272 272 272 272 272 272 272 271 270 268 266 264 263 262 261 261 260 260 258 257 255 253 249 244 243 248 258 262 261 260 260 258 258 260 261 261 260 260 259 260 260
264 264 263 262 261 260 261 262 263 263 263 263 263 264 264 265 264 263 263 264 264 264 264 265 265 266 266 265 264 263 263 265 267 268 269 270 271 271 272 272 273 273 273 273 273 273 272 271 271 271 271 271 270 270 269 267 264 262 260 259 259 259 259 259 258 256 254 253 251 249 247 248 247 246 250 256 258 258 259 260 260 260 260 259 259 261
263 264 265 264 263 262 262 262 263 264 264 263 263 263 264 263 261 260 261 262 263 265 265 264 265 265 265 265 264 264 264 264 266 268 269 270 269 269 269 269 270 272 274 274 274 274 272 270 269 270 269 268 267 267 266 265 264 263 261 259 258 258 258 257 257 257 256 255 255 253 250 245 245 247 250 256 259 259 259 259 259 259 258 256 255 258
263 263 263 264 264 263 262 262 262 262 262 263 263 263 263 262 262 262 263 262 262 262 263 263 263 262 262 263 265 266 266 266 266 267 268 269 269 268 268 268 269 271 272 273 272 272 272 271 270 269 267 265 263 262 262 262 262 263 262 261 259 258 257 256 256 256 256 256 255 255 253 251 251 252 255 257 259 260 259 259 258 258 257 256 254 255
261 261 261 261 261 261 261 261 260 261 262 263 264 264 263 263 263 263 262 261 260 260 260 261 262 262 262 263 264 265 266 267 266 266 266 266 267 267 267 267 268 269 271 271 271 271 271 272 272 270 268 264 261 259 259 259 259 260 261 261 260 259 258 257 257 256 255 256 256 256 255 255 255 255 256 258 259 259 259 259 258 258 258 257 257 257
258 260 260 259 258 259 259 259 260 262 263 264 263 263 263 263 262 262 261 261 261 261 261 262 262 263 265 265 265 265 266 266 265 265 266 265 266 266 267 268 269 270 271 272 272 271 270 269 269 269 268 266 263 260 258 257 257 258 259 260 261 262 261 261 260 259 258 258 258 258 259 259 259 260 260 259 260 260 259 259 259 259 258 258 258 257
256 259 260 259 259 259 259 260 261 262 263 262 261 261 261 261 262 263 264 264 263 263 263 263 263 263 264 265 265 266 266 266 265 265 266 267 268 268 269 270 270 271 271 271 270 270 269 268 267 266 266 266 265 263 261 259 258 259 260 261 262 262 262 262 262 261 262 261 261 261 261 262 263 264 264 264 263 262 262 261 260 260 259 259 258 257
255 256 257 258 260 261 261 262 262 262 261 260 259 260 260 261 262 263 264 264 264 264 263 262 262 263 263 264 264 265 266 266 266 266 266 268 270 270 271 270 270 269 269 270 270 270 269 269 267 266 265 265 265 264 263 262 261 262 262 262 262 262 263 263 264 264 263 263 262 262 263 263 265 265 266 266 266 265 265 264 263 262 261 261 260 259
255 255 256 257 259 261 262 262 262 262 261 260 259 261 262 261 261 262 263 263 263 265 265 264 264 265 266 266 266 266 266 266 267 267 268 268 269 270 270 271 270 270 269 270 271 271 271 270 269 267 265 264 263 262 263 264 263 262 262 263 265 266 265 265 265 265 265 265 265 265 265 264 265 265 266 266 266 266 266 266 265 264 263 262 262 261
257 257 257 258 259 259 260 260 261 261 261 260 260 261 262 262 261 260 262 263 264 265 267 267 267 268 268 268 268 267 267 266 266 266 267 268 268 269 270 270 271 272 272 272 272 272 272 271 271 269 266 264 263 262 263 264 264 264 264 265 266 267 267 267 266 266 267 268 268 268 268 268 268 267 267 267 267 267 267 266 266 265 264 263 263 262
260 260 260 260 260 259 259 259 260 260 260 261 261 261 261 262 262 262 262 263 265 266 268 268 269 269 269 268 267 267 266 265 265 265 266 267 268 269 270 271 272 273 273 273 273 272 272 271 270 269 267 266 266 265 264 263 263 264 265 266 265 266 267 268 268 268 269 270 272 272 272 272 272 271 270 269 268 268 267 267 266 265 264 264 263 263
263 262 263 262 262 261 260 260 260 260 260 262 263 263 262 262 262 262 263 264 265 266 268 269 270 270 269 268 266 266 266 266 266 267 267 268 268 269 269 270 271 271 271 271 271 271 272 272 270 269 269 269 268 267 266 264 263 264 265 266 266 266 267 269 271 271 272 272 273 274 274 273 273 273 273 272 271 270 269 268 267 266 265 264 264 263
264 264 264 264 263 262 261 261 261 261 262 263 262 262 262 261 262 263 263 264 265 266 267 269 270 270 269 268 266 266 266 266 267 269 269 268 267 267 268 269 269 269 269 269 269 270 271 271 272 272 273 272 271 270 269 268 267 266 266 267 268 270 270 270 271 271 272 272 272 273 273 273 274 274 275 274 274 273 272 270 269 268 267 265 264 263
264 265 265 264 264 263 263 263 263 263 263 263 262 262 262 262 263 264 264 265 266 267 267 267 268 269 269 268 267 267 267 268 269 269 269 268 267 266 265 266 267 268 268 268 269 269 270 270 271 273 274 274 274 273 271 270 269 268 268 269 270 270 270 270 270 271 272 273 273 274 274 274 274 275 275 274 274 274 273 272 271 270 268 267 266 265
264 265 265 265 265 265 265 264 264 264 263 263 263 264 265 265 265 266 266 266 267 266 266 266 267 267 268 268 268 268 268 268 268 268 267 267 266 265 264 263 264 266 267 268 269 269 269 270 271 271 272 273 273 273 273 272 271 270 270 270 270 271 271 271 272 273 274 274 275 275 275 275 274 274 273 273 273 273 273 272 271 271 270 269 268 267
262 263 264 265 265 266 266 266 265 265 265 265 265 265 265 266 266 266 267 267 267 267 267 266 266 265 266 267 268 268 267 267 266 265 265 265 266 266 266 265 265 266 267 268 269 269 270 270 271 271 271 271 271 272 273 273 272 271 271 271 272 273 273 274 274 274 275 275 275 275 274 274 274 274 273 272 272 272 271 271 271 270 270 269 269 268
262 263 263 264 265 266 267 267 266 266 266 265 265 265 266 266 266 267 267 267 267 267 267 267 266 265 265 265 265 265 265 265 265 265 266 266 267 267 268 268 268 267 267 268 268 269 269 269 269 270 270 271 271 271 272 272 273 273 272 273 273 274 274 275 275 275 275 274 274 274 274 273 273 273 273 272 271 270 269 269 269 269 269 268 268 268
263 263 264 265 266 266 266 266 266 266 267 267 267 267 267 267 266 266 266 266 266 265 265 265 265 265 265 265 265 265 265 266 266 266 266 267 267 267 267 267 267 267 267 267 267 267 268 268 268 269 270 271 271 272 272 272 273 273 273 273 273 273 274 274 274 274 274 274 274 274 273 273 273 272 272 271 269 268 267 266 266 267 268 268 268 268
264 265 266 266 266 265 265 265 266 266 268 269 270 269 268 268 267 267 267 267 266 265 265 265 265 265 266 266 266 266 266 265 265 264 264 264 265 265 265 265 266 266 267 267 267 267 267 267 268 268 268 270 270 271 272 272 272 272 272 272 272 272 272 273 273 273 273 273 272 272 272 272 271 271 270 269 268 267 265 264 264 264 266 267 268 269
264 265 265 265 266 266 266 267 268 268 269 269 269 268 268 268 268 268 268 268 268 267 267 267 267 267 267 267 266 265 265 265 264 264 263 263 264 264 265 265 266 266 266 267 267 267 267 267 267 267 267 267 268 269 270 271 272 272 272 271 271 270 270 270 271 271 271 271 271 271 271 271 270 269 268 267 266 265 264 263 263 263 264 265 266 267
263 264 265 265 266 267 267 268 269 269 270 269 269 269 269 269 269 268 268 268 268 268 269 269 269 269 269 268 268 267 267 266 266 265 264 264 264 264 264 265 265 265 266 266 266 266 266 266 266 266 266 266 266 267 268 269 270 271 271 270 270 270 270 270 270 270 271 271 271 271 270 269 268 267 265 265 264 264 264 264 264 264 263 263 264 264
263 264 265 266 267 267 267 268 269 269 269 270 270 270 271 270 270 270 269 269 269 269 269 269 269 269 269 269 269 269 268 268 268 267 266 266 265 264 264 264 264 265 265 265 265 265 266 266 266 266 266 265 266 266 266 267 268 269 269 269 269 269 269 269 269 268 268 268 268 268 267 266 265 264 264 264 264 265 266 266 265 264 263 263 263 263
263 264 264 265 266 267 268 269 270 270 270 271 271 272 272 272 273 273 272 271 271 270 269 269 269 269 269 269 269 269 269 269 269 269 268 267 266 265 264 264 264 264 265 266 266 266 266 266 266 266 266 266 266 265 265 266 266 267 267 267 267 267 267 266 266 265 265 265 265 264 263 263 263 263 264 264 265 266 268 266 264 263 263 264 263 263
264 264 264 264 265 266 268 269 269 270 271 272 273 273 274 274 274 274 273 273 272 271 271 270 269 269 269 269 269 269 269 269 269 269 268 267 267 266 265 265 264 264 264 265 266 267 267 268 268 268 268 267 266 265 265 265 265 265 265 265 265 265 264 263 263 262 262 262 261 261 261 262 262 262 263 264 265 266 266 266 264 263 262 262 263 263
264 264 265 265 266 267 268 268 269 270 271 272 273 274 274 274 274 274 274 274 274 273 273 272 271 271 271 271 270 269 269 269 269 268 268 268 268 267 267 266 266 265 264 264 265 266 267 268 268 269 269 268 267 265 265 264 264 264 263 263 263 263 262 262 261 260 260 259 259 259 260 261 262 263 263 263 264 264 263 264 264 264 263 262 262 262